Home > Weather > Launceston > Past weeks

Flag for Australia Past Weather in Launceston, Tasmania, Australia — Yesterday and Last 2 Weeks

Now
39 °F

Passing clouds.


Feels Like: 34 °F
Forecast: 33 / 53 °F
Wind: 7 mph from North

Location: Launceston Airport

Current Time: Jun 25, 2016 at 6:58:53 PM

Latest Report: Jun 25, 2016 at 6:00 PM


Visibility: N/A

Pressure: 30.04 "Hg

Humidity: 81%

Dew Point: 34 °F

Location of LauncestonLocation

Past Weather in Launceston — Graph

°F

Launceston Temperature Yesterday

Maximum temperature yesterday: 46 °F (at 1:30 PM)
Minimum temperature yesterday: 34 °F (at 5:00 AM)
Average temperature yesterday: 40 °F

High & Low Weather Summary for the Past Weeks

 TemperatureHumidityPressure
High57 °F (Jun 14, 1:00 PM)100% (Jun 15, 6:00 AM)30.45 "Hg (Jun 15, 6:00 AM)
Low27 °F (Jun 25, 6:30 AM)46% (Jun 11, 3:00 PM)29.09 "Hg (Jun 22, 2:00 AM)
Average45 °F83%29.91 "Hg
* Reported Jun 10 5:00 PM — Jun 25 5:30 PM, Launceston, Weather by CustomWeather, © 2016

Note: Actual official high and low records may vary slightly from our data, if they occured in-between our weather recording intervals... More about our weather records

Advertising

Launceston Weather History for the Previous 24 Hours

Scroll right to see more
 ConditionsComfort  
Time TempWeatherWind HumidityBarometerVisibility
5:30 PM
Sat, Jun 25
37 °FClear.8 mph81%30.04 "HgN/A
5:00 PM39 °FClear.8 mph81%30.04 "HgN/A
4:30 PM43 °FPassing clouds.8 mph71%30.04 "HgN/A
4:00 PM45 °FPassing clouds.7 mph66%30.04 "HgN/A
3:00 PM46 °FSunny.9 mph62%30.04 "HgN/A
2:00 PM48 °FSunny.6 mph50%30.04 "HgN/A
1:30 PM48 °FSunny.7 mph54%30.04 "HgN/A
1:00 PM46 °FSunny.6 mph53%30.04 "HgN/A
12:30 PM46 °FSunny.8 mph53%30.04 "HgN/A
12:00 PM45 °FSunny.6 mph61%30.07 "HgN/A
11:00 AM43 °FSunny.6 mph66%30.07 "HgN/A
10:30 AM41 °FSunny.3 mph70%30.07 "HgN/A
10:00 AM39 °FSunny.2 mph75%30.07 "HgN/A
9:30 AM37 °FSunny.No wind81%30.04 "HgN/A
9:00 AM36 °FSunny.1 mph81%30.04 "HgN/A
8:00 AM28 °FScattered clouds.2 mph93%30.01 "HgN/A
7:00 AM28 °FSunny.No wind100%30.01 "HgN/A
6:30 AM27 °FClear.6 mph93%30.01 "HgN/A
6:00 AM28 °FClear.5 mph93%29.98 "HgN/A
5:30 AM28 °FClear.6 mph86%29.98 "HgN/A
5:00 AM30 °FClear.6 mph80%29.95 "HgN/A
4:00 AM34 °FClear.No wind87%29.95 "HgN/A
3:00 AM30 °FClear.6 mph93%29.92 "HgN/A
2:00 AM32 °FClear.5 mph87%29.92 "HgN/A
1:00 AM32 °FClear.6 mph80%29.89 "HgN/A
12:30 AM32 °FClear.5 mph87%29.89 "HgN/A
12:00 AM34 °FClear.5 mph81%29.86 "HgN/A
11:30 PM
Fri, Jun 24
34 °FClear.6 mph81%29.86 "HgN/A
11:00 PM37 °FPassing clouds.6 mph70%29.83 "HgN/A
10:30 PM37 °FPassing clouds.8 mph75%29.83 "HgN/A
10:00 PM36 °FClear.7 mph75%29.80 "HgN/A
9:00 PM39 °FClear.10 mph65%29.77 "HgN/A
8:30 PM39 °FClear.8 mph65%29.77 "HgN/A
8:00 PM37 °FClear.8 mph75%29.74 "HgN/A
7:30 PM39 °FClear.6 mph70%29.71 "HgN/A
7:00 PM39 °FClear.6 mph75%29.68 "HgN/A
6:30 PM39 °FClear.6 mph81%29.65 "HgN/A
6:00 PM39 °FPassing clouds.6 mph81%29.65 "HgN/A
Weather by CustomWeather, © 2016

See weather overviewHow to use our weather pages